Showing default

SPARTAN, 48964

Orbit data source: Space-Track

SPARTAN, 48964 is a payload satellite owned by Endurosat (BG) in SSO that was launched on Wed, 30 Jun 2021 UTC via an FALCON 9 launch vehicle from the Air Force Eastern Test Range (AFETR). Payload-class satellites include a variety of spacecraft equipped with specific instruments for various scientific and technological missions. These include communications satellites like Starlink; space stations such as the ISS; scientific satellites like the Hubble; Earth observation satellites from companies like Planet Labs, Umbra, and HawkEye 360; GPS; miniature CubeSats for education and research; and military/defense satellites.

Loading next visibility...
Identifier
48964, 2021-059CP
Orbit
SSO
Country
Flag of BGBG / BGR
Related business
Manufacturer
Endurosat
Mission
Operational Commercial Technology
Bus & Motor
CUBESAT 6U, Unknown motor
Mass
~10 kg wet, ~10 kg dry
Launch date (UTC)
2021-06-30 (5 years ago)
Launch vehicle
FALCON 9
Launch site
Air Force Eastern Test Range (AFETR)
Object type
Payload
Rocket body
Debris
Shape & HBR
Box + 2 Pan, 0.1 m
Radar Cross Section
0.080 m², Medium (>0.1 m² and < 1m²)

Expand to show TLE details & history
Last TLE update: 16 hours ago

TLE from 16 hours ago
0 SPARTAN
1 48964U 21059CP  26094.48707485  .00071827  00000-0  59042-3 0  9990
2 48964  97.6835 287.3211 0002326 200.3746 159.7423 15.70208172266334
Epoch: 2026-04-04T11:41Z
TLE epoch observation values (Epoch: 2026-04-04T11:41:23.267Z)
Latitude
0.00001°
Longitude
-80.832°
Altitude
362.922 km
Speed
7.691 km/s
True Right ascension
19h 09m 17s
True Declination
0° 00' 00"
Sunlit
Object was in daylight at epoch
Visualization orbit readout
Latitude
Unknown
Longitude
Unknown
Altitude
Unknown
Speed
Unknown
Apparent Right ascension
Unknown
Apparent Declination
Unknown
Sunlit
N/A
Visualization observer readout
Local Sidereal Time
09:54:59
Azimuth
Unknown
Elevation
Unknown
Doppler factor
Unknown
Orbital elements
Apogee altitude
356.779 km
Perigee altitude
353.647 km
Semi-major axis
6,733.35 km
Eccentricity
0.00023
Inclination
97.6835°
RAAN
287.3211°
Arg. of periapsis
200.3746°
True anomaly
159.75153°
Mean anomaly
159.7423°
Eccentric anomaly
159.74691°
Mean motion
3.92823 °/min
Orbital period
91.64 mins
BSTAR
0.00059042
Loading maneuver chart data...
Computing Atmospheric mass density...
Loading historical data...
Loading historical data...
Loading historical data...
Loading historical data...
Loading historical data...
Loading historical data...
Loading historical data...

Documentation

Showing up to 5 results
|